Probability
0 0 0 0 1 2 2 2 2 2 3 3 3 3 2 2 1 1 1 0 0 0 0 1 2 3 4 2 1 0 0 0 0 1 1 1 0 0 0 0 0 0 0
0 0 0 0 0 1 1 1 1 1 2 2 2 2 1 1 1 1 1 0 0 0 0 0 1 1 2 1 0 0 0 0 1 1 1 1 0 0 0 0 0 0 0
0 0 0 0 0 0 0 0 0 0 1 1 1 1 0 0 0 1 1 0 0 1 1 1 0 0 0 0 0 0 1 1 1 0 0 0 0 0 0 0 0 0 0
0 0 0 0 0 0 0 0 0 0 0 0 0 0 0 0 0 0 0 1 1 2 2 1 0 0 0 0 0 0 2 2 1 0 0 0 0 0 0 0 0 0 0
0 0 0 0 0 0 0 0 0 0 0 0 0 0 0 0 0 0 0 1 2 3 2 1 1 0 0 0 0 0 1 2 1 1 1 1 0 0 0 0 0 0 1
0 0 0 0 0 0 0 0 0 0 0 0 0 0 0 0 0 0 0 1 2 3 3 2 1 0 0 0 0 0 1 2 3 2 2 2 2 2 2 1 1 1 2
0 1 1 1 0 0 0 0 0 0 0 0 0 0 0 0 0 0 0 0 1 1 2 1 1 0 0 0 0 0 1 2 3 3 3 3 4 4 4 4 3 2 3
1 2 2 1 0 0 0 0 0 0 0 0 0 0 0 0 0 0 0 0 0 0 0 0 0 0 0 0 0 0 1 1 2 3 3 3 4 4 5 4 3 2 2
1 1 1 0 0 0 0 0 0 0 0 0 0 0 0 0 0 0 0 0 0 0 0 0 0 0 0 0 0 0 0 0 1 1 2 3 3 4 4 4 4 3 2
1 0 0 0 0 0 0 0 0 0 0 1 1 0 0 0 0 0 0 0 0 0 0 0 0 0 0 0 0 0 0 0 0 0 1 2 3 4 4 4 5 5 5
0 0 0 0 0 0 0 0 0 0 1 2 2 1 0 0 0 0 0 0 0 0 0 0 0 0 0 0 0 0 0 0 0 0 0 0 1 3 4 5 5 6 6
0 0 0 0 0 0 0 0 0 0 1 2 3 2 1 1 0 0 0 0 0 0 0 0 0 0 0 0 0 0 0 0 0 0 0 0 0 1 3 4 5 6 6
0 0 0 0 0 0 0 0 0 0 1 2 3 3 3 2 1 0 0 0 0 0 0 0 0 0 1 1 0 0 0 0 0 0 0 0 0 0 1 2 3 4 4
1 1 1 1 2 1 1 1 1 0 1 2 3 4 4 4 3 1 0 0 0 0 0 0 0 1 2 2 1 0 0 0 0 0 0 0 0 0 0 0 1 1 1
2 2 3 4 5 4 4 4 3 1 1 2 3 5 5 6 5 3 1 1 1 1 1 1 0 1 2 2 1 0 0 0 0 1 1 0 0 0 0 0 0 0 0
3 3 3 4 6 6 6 5 4 3 2 2 3 5 7 8 8 6 4 3 3 3 3 2 1 1 1 1 0 0 0 1 1 1 1 0 0 0 0 0 0 0 0
3 3 3 4 5 6 6 6 4 3 3 3 3 4 7 9 10 9 8 6 4 4 3 3 3 2 2 2 1 0 0 1 1 1 1 0 0 0 0 0 0 0 0
3 3 4 4 5 6 6 6 5 4 4 4 4 5 8 10 10 10 10 9 7 6 4 4 4 3 3 3 2 0 0 0 1 0 0 0 0 0 0 0 0 0 0
5 5 5 6 7 7 7 7 7 7 7 8 8 8 9 10 10 11 11 11 11 9 6 5 5 4 3 2 1 0 0 0 0 0 0 0 0 0 0 0 0 0 0
7 7 7 8 8 9 8 7 8 9 10 10 10 10 9 9 10 11 12 12 12 10 8 7 5 3 2 1 0 0 0 0 0 0 0 0 0 0 0 0 0 0 0
9 8 8 7 8 9 8 7 8 10 12 11 10 9 8 7 8 9 8 8 9 8 7 6 4 2 1 0 0 0 0 0 0 0 0 0 0 0 0 0 0 0 0
9 8 8 8 8 10 9 7 7 10 11 9 7 7 6 5 5 6 5 4 5 5 4 4 3 3 2 1 0 0 0 0 0 0 0 0 0 0 0 0 0 0 0
8 8 8 9 10 10 10 7 7 9 8 5 4 4 4 4 5 5 5 4 3 3 3 3 3 3 3 2 1 0 0 0 0 0 0 0 0 0 0 0 0 0 0
6 6 8 8 9 10 9 7 6 7 5 3 2 3 3 4 4 5 6 5 5 4 3 3 3 3 3 2 1 1 1 0 0 0 0 0 0 0 0 0 0 0 0
6 6 7 8 9 10 9 6 5 5 3 2 2 2 1 1 2 3 3 4 5 5 4 3 3 2 2 1 1 1 0 0 0 1 1 1 0 0 0 0 0 0 0
7 7 7 9 10 11 9 5 3 4 3 1 1 1 0 0 0 1 2 3 4 4 4 3 2 1 1 1 1 0 0 0 1 2 2 2 1 0 0 0 0 0 0
Wind_Speed
1 1 1 1 1 1 1 1 1 1 1 1 1 1 1 2 2 1 1 3 3 4 5 5 5 6 6 5 4 4 4 4 4 3 3 4 5 5 5 5 5 5 4
1 1 1 1 1 1 1 1 1 1 1 1 1 1 0 1 2 1 1 1 3 4 4 5 5 5 5 5 5 4 4 4 4 3 4 4 5 5 5 5 5 4 5
2 1 1 1 0 1 1 1 1 1 1 1 1 1 1 1 1 1 0 0 1 3 4 4 4 4 4 4 4 4 4 4 3 3 3 4 4 4 5 5 5 5 4
2 2 1 1 1 1 1 1 1 1 1 1 1 1 1 1 1 0 0 0 0 0 1 2 2 2 2 2 3 3 4 4 3 3 3 3 3 3 4 5 5 4 5
2 2 1 1 1 1 1 1 1 2 2 1 1 1 1 1 1 1 1 1 1 1 0 0 1 1 1 1 1 2 2 3 3 3 3 3 3 2 3 3 4 5 5
2 2 1 1 1 1 1 1 2 2 1 1 1 1 1 1 1 2 1 1 1 1 1 1 1 1 1 1 1 2 2 2 2 3 4 4 3 3 3 3 4 5 5
2 2 1 1 1 1 1 2 2 2 1 1 2 1 2 2 2 2 2 1 2 1 1 1 1 1 1 2 1 2 2 2 3 3 3 3 3 3 3 3 3 3 4
2 2 2 2 2 1 2 2 2 2 1 1 2 1 1 2 2 2 1 1 1 1 2 1 1 1 1 1 1 1 1 1 2 2 2 2 2 2 2 2 3 4 4
1 1 2 2 2 2 2 2 2 3 2 1 1 2 1 0 1 1 1 1 1 1 1 1 1 1 1 1 1 1 1 1 0 0 1 1 2 1 2 2 3 4 4
1 2 2 2 2 2 2 2 2 2 3 2 0 0 1 2 1 1 1 1 1 1 1 1 1 1 1 1 1 1 1 1 1 1 1 1 1 1 1 1 2 3 4
1 1 2 2 2 2 2 2 2 2 2 2 2 1 1 1 1 1 1 1 1 1 1 1 1 1 1 1 1 1 1 1 1 1 1 1 1 1 1 1 2 2 3
1 1 2 2 2 2 2 2 2 3 2 2 2 2 2 2 2 2 2 1 1 2 2 1 1 1 1 1 1 1 1 1 1 1 1 1 1 0 1 1 1 2 2
1 2 2 2 2 2 2 2 2 2 2 2 2 2 2 2 2 2 2 1 1 1 1 1 2 2 1 1 1 1 0 0 1 1 1 1 1 1 1 1 1 1 1
2 2 2 2 2 2 2 2 2 2 2 2 3 2 2 2 2 3 3 2 1 1 1 2 1 2 2 1 1 2 1 0 0 0 0 0 1 1 0 1 1 1 1
2 2 2 2 2 2 2 3 2 2 2 2 2 2 2 2 2 3 3 3 2 1 2 2 2 2 2 2 1 1 1 1 1 1 0 0 0 1 1 1 1 1 1
2 2 2 2 2 2 2 2 1 1 2 2 2 2 2 2 2 2 3 3 3 3 2 2 3 2 2 2 2 2 2 1 1 1 1 0 0 1 1 1 1 1 1
2 2 2 2 2 2 2 2 2 2 2 2 2 2 3 2 2 2 2 2 2 2 3 2 1 1 2 2 1 1 1 2 1 2 2 1 1 1 1 1 1 1 1
2 2 2 2 2 2 2 2 3 2 2 3 2 2 3 2 2 2 2 2 2 3 3 3 1 1 2 2 2 2 2 1 2 2 2 2 2 1 1 1 1 1 1
2 1 2 2 2 2 2 3 3 3 3 3 3 3 3 2 2 2 2 2 2 2 2 2 2 1 1 1 1 1 1 1 2 1 2 2 2 2 2 2 2 2 2
3 3 3 3 3 3 3 3 3 3 2 2 2 2 2 3 3 2 2 2 1 1 1 2 1 1 1 1 1 1 1 1 2 1 1 2 2 3 3 3 3 3 3
3 2 2 2 2 2 2 2 2 2 2 1 1 1 1 1 2 2 2 2 2 2 1 2 2 1 1 1 2 1 2 1 1 1 1 2 1 2 2 3 4 3 3
2 2 2 2 2 2 2 2 2 2 2 2 1 1 1 1 1 1 2 3 3 3 3 2 2 3 3 2 1 2 1 1 2 1 1 2 2 2 2 3 3 4 4
2 2 2 2 2 2 2 2 2 2 2 2 2 2 1 1 0 0 0 1 2 3 4 4 4 4 3 3 3 3 3 3 3 1 2 2 2 3 3 3 5 5 5
3 2 2 2 2 2 2 2 2 2 1 1 1 2 1 1 1 0 0 1 1 2 3 3 4 4 4 4 4 4 4 2 2 1 2 3 2 3 3 3 5 6 7
2 2 2 2 2 1 1 1 2 1 1 1 1 1 1 1 1 1 1 1 2 2 2 2 3 4 4 4 3 2 2 2 2 2 2 2 2 2 3 4 4 6 7
3 2 1 1 1 1 1 1 2 1 1 1 1 1 1 1 1 1 1 1 2 3 2 2 2 2 2 2 4 4 4 3 2 2 3 3 2 1 2 2 3 3 4
Wind_Direction
103 89 78 70 65 76 95 97 93 84 73 63 80 95 133 156 164 178 203 203 220 228 226 229 232 224 215 209 208 209 208 201 198 202 213 215 213 209 206 204 205 214 215
110 97 79 75 82 97 113 121 119 112 99 86 71 65 88 141 144 160 181 218 226 230 227 231 237 234 221 213 212 207 201 200 203 207 218 225 225 221 213 208 208 214 218
117 113 95 87 89 113 115 109 108 109 110 104 80 61 51 74 90 120 176 223 246 229 224 234 244 243 229 221 216 213 205 203 210 215 220 223 226 224 217 216 215 215 219
120 116 108 102 99 106 114 123 124 113 100 93 74 44 50 58 62 61 82 92 26 306 246 237 266 264 235 236 227 220 210 199 199 203 214 220 224 228 231 228 221 221 224
125 125 123 107 111 117 126 146 132 135 120 103 93 64 43 46 24 40 57 69 64 36 17 326 301 285 251 249 251 240 220 203 195 202 218 231 230 239 245 237 227 227 227
130 127 126 111 112 112 110 134 134 123 129 123 96 59 34 29 48 46 46 56 62 53 35 8 336 304 288 266 250 240 242 233 212 211 222 233 237 243 248 246 234 225 217
144 140 131 114 120 127 136 136 125 115 105 106 90 49 28 32 44 44 48 56 45 36 35 15 359 338 321 340 320 276 258 247 235 230 228 236 243 244 246 246 228 200 196
165 163 153 148 145 133 124 126 122 118 128 114 117 98 24 356 3 14 36 53 29 27 29 19 6 352 333 329 339 321 307 286 264 245 233 216 223 227 221 217 198 189 195
174 171 170 160 155 156 162 163 150 144 152 147 113 130 128 237 331 352 350 7 7 6 348 339 356 337 327 328 309 313 337 350 349 258 225 204 203 213 220 219 203 196 198
202 195 179 172 168 168 174 185 159 155 154 165 149 91 157 158 154 321 327 319 312 318 312 310 318 326 339 335 327 359 17 21 32 27 49 130 163 173 194 220 202 199 202
256 222 187 181 181 184 189 185 164 168 172 174 177 162 130 107 143 178 267 300 311 295 289 284 288 307 335 336 307 348 23 33 34 39 50 59 97 141 182 213 214 211 212
279 250 197 194 194 191 190 187 181 186 195 190 185 177 171 171 181 180 215 255 276 282 276 263 259 264 275 308 312 11 59 74 57 46 45 37 23 326 259 245 242 234 229
241 247 212 200 198 198 189 177 180 201 199 199 204 205 202 201 176 169 175 209 256 284 281 262 247 243 247 280 281 290 213 107 68 39 18 359 339 303 276 272 270 273 298
226 230 213 203 197 191 191 179 183 203 197 209 216 207 204 211 190 183 180 174 212 266 266 265 256 235 243 242 256 268 261 178 91 13 333 323 323 328 334 335 343 324 8
217 205 201 194 194 185 182 173 187 203 200 214 221 217 220 222 209 207 194 186 184 220 255 242 242 245 240 235 229 243 263 232 217 216 214 336 31 51 62 56 48 57 72
211 195 193 195 201 200 191 177 188 199 191 217 211 217 235 232 222 209 202 203 200 198 228 235 234 246 232 229 206 229 245 240 218 210 214 228 84 77 87 90 91 82 76
209 207 203 199 205 213 202 187 209 204 203 222 230 226 243 235 231 225 211 205 203 197 224 257 237 239 217 223 232 237 246 248 249 229 230 233 213 177 150 129 127 129 141
211 207 197 203 214 214 205 201 220 224 211 222 236 238 252 243 243 240 223 219 214 208 208 237 250 225 222 222 227 231 240 243 250 246 232 228 220 210 196 204 207 205 220
208 199 188 204 224 225 222 221 215 222 229 231 228 229 240 227 244 251 238 232 225 215 206 209 232 224 222 211 226 249 254 270 266 250 228 223 227 230 225 222 221 224 223
197 202 203 208 217 218 222 226 218 218 230 241 239 234 232 219 222 224 226 231 211 197 190 195 199 215 234 212 197 223 264 272 279 270 269 256 246 240 237 230 223 214 214
202 198 200 210 217 212 226 222 218 217 210 227 253 261 248 239 209 200 201 205 196 197 198 204 211 215 220 205 219 220 245 276 276 246 266 264 247 246 244 234 220 215 216
193 187 201 210 221 234 245 224 203 197 193 197 221 283 287 256 231 219 216 203 197 197 205 207 215 224 235 222 211 207 208 223 261 223 226 263 238 245 250 239 230 221 219
196 200 207 202 218 247 228 207 197 178 181 199 214 231 270 321 342 321 279 215 230 236 216 207 217 231 231 216 197 208 211 221 244 228 203 251 240 253 258 248 233 229 230
203 209 216 213 215 242 221 205 187 170 176 208 226 225 238 283 308 21 314 310 285 265 246 231 233 244 245 229 209 208 209 218 263 237 200 242 244 253 263 256 238 233 235
201 199 204 197 204 259 248 189 157 150 159 256 277 278 251 259 283 113 128 302 312 312 295 266 263 263 259 242 202 175 187 203 253 247 203 231 253 263 255 248 245 236 235
193 176 177 183 193 240 249 174 155 155 188 273 309 305 264 252 283 171 183 210 265 288 311 325 318 296 262 237 204 199 198 206 229 245 203 210 231 247 266 245 247 250 240